This is the latest recevied weather packets stored in our database for station/object AA4XD. If no packets are shown the sender has not sent any weather packets the latest 10 day(s).
| Time | Temp. | Humidity | Pressure | Rain* | Wind** | Luminosity | Snow |
|---|---|---|---|---|---|---|---|
| 1777842003 | 27.78° C | 32% | 1015.3 hPa | 0 mm | - | 574 W/m² | - |
| 1777841700 | 27.78° C | 32% | 1015.2 hPa | 0 mm | - | 591 W/m² | - |
| 1777841396 | 27.78° C | 34% | 1015.2 hPa | 0 mm | - | 609 W/m² | - |
| 1777841094 | 27.78° C | 34% | 1015.4 hPa | 0 mm | - | 627 W/m² | - |
| 1777840790 | 27.78° C | 33% | 1015.5 hPa | 0 mm | - | 650 W/m² | - |
| 1777840488 | 27.22° C | 34% | 1015.2 hPa | 0 mm | - | 677 W/m² | - |
| 1777840184 | 27.22° C | 35% | 1015.4 hPa | 0 mm | - | 688 W/m² | - |
| 1777839883 | 27.22° C | 34% | 1015.5 hPa | 0 mm | - | 708 W/m² | - |
| 1777839581 | 27.78° C | 36% | 1015.4 hPa | 0 mm | - | 722 W/m² | - |
| 1777839278 | 27.78° C | 33% | 1015.5 hPa | 0 mm | - | 739 W/m² | - |
| 1777838976 | 27.22° C | 35% | 1015.4 hPa | 0 mm | - | 746 W/m² | - |
| 1777838672 | 27.22° C | 36% | 1015.6 hPa | 0 mm | - | 769 W/m² | - |
| 1777838368 | 27.78° C | 34% | 1015.8 hPa | 0 mm | - | 782 W/m² | - |
| 1777838066 | 27.22° C | 36% | 1015.9 hPa | 0 mm | - | 794 W/m² | - |
| 1777837762 | 27.22° C | 36% | 1015.7 hPa | 0 mm | - | 803 W/m² | - |
| 1777837459 | 26.67° C | 36% | 1016 hPa | 0 mm | - | 822 W/m² | - |
| 1777837155 | 26.11° C | 38% | 1016.1 hPa | 0 mm | - | 831 W/m² | - |
| 1777836850 | 26.67° C | 36% | 1016 hPa | 0 mm | - | 861 W/m² | - |
| 1777836546 | 26.67° C | 39% | 1016.4 hPa | 0 mm | - | 745 W/m² | - |
| 1777836242 | 26.67° C | 36% | 1016.3 hPa | 0 mm | - | 854 W/m² | - |
| 1777835938 | 26.11° C | 38% | 1016.5 hPa | 0 mm | - | 670 W/m² | - |
| 1777835636 | 26.67° C | 36% | 1016.5 hPa | 0 mm | - | 712 W/m² | - |
| 1777835332 | 26.67° C | 37% | 1016.4 hPa | 0 mm | - | 609 W/m² | - |
| 1777835029 | 26.11° C | 38% | 1016.7 hPa | 0 mm | - | 992 W/m² | - |
| 1777834726 | 26.11° C | 36% | 1016.6 hPa | 0 mm | - | 503 W/m² | - |
* Rain latest hour (hover to see other rain measurements)
** Current wind speed in m/s (hover to see current wind gust speed)